Regional Weather Roundup
Issued by NWS

Home | Current Version | Previous Version | Graphics & Text | Print | Product List | Glossary On
Versions: 1 2 3 4 5 6 7 8 9 10 11 12 13 14 15 16 17 18 19 20 21 22 23 24 25 26 27 28 29 30 31 32 33 34 35 36 37 38 39 40 41 42 43 44 45 46 47 48 49 50
000
ASUS43 KMKX 280821
RWRWI

WISCONSIN REGIONAL WEATHER ROUNDUP
NATIONAL WEATHER SERVICE MILWAUKEE/SULLIVAN WI
300 AM CDT FRI AUG 28 2015

NOTE: "FAIR" INDICATES FEW OR NO CLOUDS BELOW 12,000 FEET WITH NO
SIGNIFICANT WEATHER AND/OR OBSTRUCTIONS TO VISIBILITY.

WIZ001-002-006>008-014>016-023>028-280900-
NORTHWEST WISCONSIN

CITY           SKY/WX    TMP DP  RH WIND       PRES   REMARKS
SUPERIOR ARPT  CLOUDY    53  51  94 CALM      29.98R
ASHLAND        CLOUDY    62  60  93 S6        29.99S
HAYWARD        MOCLDY    61  58  90 S5        30.01F
SIREN          PTCLDY    64  58  80 S9        30.00S
CUMBERLAND     PTCLDY    55  55 100 S6        30.02S
RICE LAKE      PTCLDY    57  56  94 SE5       30.04S
CHETEK         PTCLDY   N/A N/A N/A CALM      30.04R
LADYSMITH      PTCLDY    60  58  91 CALM      30.06S
EAU CLAIRE     MOCLDY    60  57  89 S5        30.04R
MENOMONIE      MOCLDY    60  58  94 SE5       30.04S
NEW RICHMOND   MOCLDY    61  59  92 S6        30.01F
OSCEOLA        PTCLDY    61  61 100 S3        30.03F
$$

WIZ003>005-009-010-017-018-280900-
NORTH CENTRAL WISCONSIN

CITY           SKY/WX    TMP DP  RH WIND       PRES   REMARKS
MANITOWISH WTR CLOUDY    59  59  99 S5        30.04S
ARBOR VITAE    CLOUDY    62  59  90 S7        30.06R
WOODRUFF       CLOUDY    62  59  90 S7        30.06R
RHINELANDER    CLOUDY    61  57  87 SW10      30.08R
EAGLE RIVER    MOCLDY    57  56  97 S3        30.06R
LAND O LAKES   PTCLDY    56  56  97 CALM      30.06S
PHILLIPS       MOCLDY    59  57  94 S7        30.04S
TOMAHAWK       CLOUDY    59  57  94 CALM      30.07S
MEDFORD        MOCLDY    60  58  92 S7        30.06F
MERRILL        MOCLDY    55  55 100 CALM      30.07F
$$

WIZ029-030-035-036-043>047-280900-
CENTRAL WISCONSIN

CITY           SKY/WX    TMP DP  RH WIND       PRES   REMARKS
WAUSAU         PTCLDY    62  58  86 SW3       30.06S
MOSINEE        MOCLDY    57  55  94 S6        30.09S
MARSHFIELD     MOCLDY    59  55  87 S5        30.07F
STEVENS POINT  MOCLDY    58  56  91 S5        30.09S
WAUPACA        MOCLDY    61  59  93 CALM      30.09S
WAUTOMA        MOCLDY    55  55 100 CALM      30.10S
WISC RAPIDS    MOCLDY    61  56  83 S6        30.09S
CAMP DOUGLAS   CLOUDY    58  58 100 SE2       30.07S
$$

WIZ011>013-019>022-031-037>040-048>050-280900-
NORTHEAST WISCONSIN

CITY           SKY/WX    TMP DP  RH WIND       PRES   REMARKS
ANTIGO         CLOUDY    58  57  95 SW3       30.09R
SHAWANO        MOCLDY    61  57  88 CALM      30.09R
OCONTO         PTCLDY    57  57 100 SW3       30.09R
STURGEON BAY   PTCLDY    57  52  82 S8        30.12R
GREEN BAY      MOCLDY    58  55  90 S6        30.09S
MANITOWOC      CLEAR     61  52  72 MISG      30.11R
APPLETON       PTCLDY    59  54  82 S7        30.08S
CLINTONVILLE   PTCLDY    59  55  88 CALM      30.08S
OSHKOSH        MOCLDY    59  54  83 S8        30.09S
$$

WIZ032>034-041-042-053>061-280900-
SOUTHWEST WISCONSIN

CITY           SKY/WX    TMP DP  RH WIND       PRES   REMARKS
LA CROSSE      CLOUDY    65  60  84 S6        30.06R
SPARTA         CLOUDY    56  55  93 CALM      30.07S
VIROQUA        CLOUDY    62  60  94 S7        30.08S
BOSCOBEL       CLOUDY    59  57  93 CALM      30.08S
PRAIRIE DU CHI CLOUDY    64  58  82 CALM      30.08R
PLATTEVILLE    CLOUDY    61  59  93 SE5       30.10S
$$

WIZ056-057-062-063-064-067-068-280900-
SOUTH CENTRAL WISCONSIN

CITY           SKY/WX    TMP DP  RH WIND       PRES   REMARKS
REEDSBURG      PTCLDY    59  57  93 CALM      30.09S
BARABOO/DELLS  PTCLDY    59  55  88 S5        30.09S
LONE ROCK      MOCLDY    58  56  93 E6        30.10S
MINERAL POINT  CLOUDY    61  59  94 SE6       30.10S
MADISON        PTCLDY    60  55  83 S6        30.10S
MIDDLETON      PTCLDY    60  55  85 S5        30.10S
WATERTOWN      PTCLDY    54  54 100 CALM      30.10S
MONROE         MOCLDY    61  55  82 S7        30.11R
JANESVILLE     PTCLDY    55  54  94 SE3       30.10F
$$

WIZ051-052-058>065-066-070>072-280900-
SOUTHEAST WISCONSIN

CITY           SKY/WX    TMP DP  RH WIND       PRES   REMARKS
MILWAUKEE      MOCLDY    57  53  86 S5        30.13R
WAUKESHA       PTCLDY    55  52  88 S6        30.13S
MILWAUKEE/TIMM PTCLDY    57  52  82 S3        30.13S
RACINE         MOCLDY    59  55  87 S5        30.14S
BURLINGTON     CLEAR     49  49  99 CALM      30.12F
KENOSHA        CLOUDY    56  54  93 S3        30.12F
FOND DU LAC    MOCLDY    56  53  90 S5        30.10S
SHEBOYGAN      CLOUDY    56  53  90 S3        30.11S
WEST BEND      PTCLDY    55  52  88 CALM      30.12S
JUNEAU         PTCLDY    55  52  88 SE3       30.12S
$$

LSZ147-162-280900-
LAKE SUPERIOR

STATION/POSITION TIME  TEMP    WIND        PRES    WAVE
                       AIR SEA DIR/SP/G            HT/PER
                 (UTC) (F)     (DEG/KT/KT) (MB)    (FT/S)
W MID LAKE BUOY  0750   58 55  200/  6/  8 1015.1R   0
DEVILS ISLAND    0800   63     220/  5/  6 1015.0R
PORT WING        0740   59      CALM  /  2 1015.2F
SAXON HARBOR     0700   65     180/  3/  7 1014.9F
$$

LMZ867-665-643>646-280900-
LAKE MICHIGAN

STATION/POSITION TIME  TEMP    WIND        PRES    WAVE
                       AIR SEA DIR/SP/G            HT/PER
                 (UTC) (F)     (DEG/KT/KT) (MB)    (FT/S)
CHAMBERS ISLAND  0700   61     170/  4/  9 1018.3S
S GREEN BAY BUOY 0800   63     200/ 12/ 16 1020.2
N MID LAKE BUOY  0750   63 64  210/ 19/ 23 1018.2S   3/ 4
NORTHPORT PIER   0700   62     170/  4/ 10 1018.3S
SISTER BAY       0719   61     180/ 12/ 15   N/A
ALGOMA LAKESHORE 0714          220/  3/  6   N/A
KEWAUNEE LAKESHO 0700   61     210/  8/ 11 1018.3S
SHEBOYGAN LAKESH 0800   58     190/  6/  6 1020.1R
PORT WASHINGTON  0700   56     250/  1/  2 1020.7F
ATWATER BUOY     0800   53 47  170/  6/  6 1021.1F
MILWAUKEE LAKESH 0800   58     160/  1/  1   N/A
S MID LAKE BUOY  0750   67 68  170/ 10/ 14 1020.2S   1
KENOSHA   LAKESH 0800   62     180/  6/  7 1019.6S
$$

TC  - TEMPERATURE IN CELSIUS
VSB - VISIBILITY IN STATUTE MILES
WCI - WIND CHILL INDEX
HX  - HEAT INDEX




USA.gov is the U.S. government's official web portal to all federal, state and local government web resources and services.